| time (UTC) | temp F | wind direction | speed MPH | gust MPH | rain 1hr in | rain 24hr in | rain mn in | humidity % | barometer mb |
| 20260906051523 | 58 | 0.0 | 0.0 | 0.00 | 0.03 | 0.03 | 84 | 1016.0 | |
| 20260906050028 | 58 | 0.0 | 0.0 | 0.00 | 0.03 | 0.03 | 83 | 1016.1 | |
| 20260906044529 | 59 | 0.0 | 0.0 | 0.00 | 0.03 | 0.03 | 82 | 1016.3 | |
| 20260906043013 | 59 | 0.0 | 0.0 | 0.00 | 0.03 | 0.03 | 81 | 1016.4 | |
| 20260906041522 | 60 | 0.0 | 0.0 | 0.00 | 0.03 | 0.03 | 81 | 1016.5 | |
| 20260906040029 | 60 | 0.0 | 0.0 | 0.00 | 0.04 | 0.03 | 79 | 1016.6 | |
| 20260906034540 | 61 | 0.0 | 0.0 | 0.00 | 0.04 | 0.03 | 79 | 1016.3 | |
| 20260906033031 | 62 | 0.0 | 0.0 | 0.00 | 0.04 | 0.03 | 77 | 1016.1 | |
| 20260906031513 | 62 | 0.0 | 0.0 | 0.00 | 0.04 | 0.03 | 76 | 1016.0 | |
| 20260906030021 | 63 | 0.0 | 0.0 | 0.00 | 0.05 | 0.03 | 74 | 1016.0 | |
| 20260906024527 | 63 | 0.0 | 0.0 | 0.00 | 0.11 | 0.03 | 73 | 1015.9 | |
| 20260906023031 | 64 | 0.0 | 0.0 | 0.00 | 0.11 | 0.03 | 71 | 1016.0 | |
| 20260906021533 | 65 | 0.0 | 0.0 | 0.00 | 0.11 | 0.03 | 71 | 1016.1 | |
| 20260906020014 | 65 | 0.0 | 0.0 | 0.00 | 0.11 | 0.03 | 69 | 1016.0 | |
| 20260906014523 | 66 | 0.0 | 0.0 | 0.00 | 0.11 | 0.03 | 67 | 1015.9 | |
| 20260906013033 | 66 | 0.0 | 0.0 | 0.00 | 0.11 | 0.03 | 65 | 1015.9 | |
| 20260906011532 | 67 | 0.0 | 0.0 | 0.00 | 0.11 | 0.03 | 65 | 1015.8 | |
| 20260906010032 | 67 | 0.0 | 0.0 | 0.00 | 0.11 | 0.03 | 62 | 1015.8 | |
| 20260906004521 | 68 | 0.0 | 0.0 | 0.00 | 0.11 | 0.03 | 62 | 1015.9 | |
| 20260906003027 | 68 | 0.0 | 0.0 | 0.00 | 0.11 | 0.03 | 64 | 1015.8 | |
| 20260906001531 | 69 | 0.0 | 0.0 | 0.00 | 0.11 | 0.03 | 61 | 1015.8 | |
| 20260906000037 | 69 | 0.0 | 0.0 | 0.00 | 0.11 | 0.03 | 59 | 1015.7 | |
| 20260905234533 | 69 | 0.0 | 0.0 | 0.00 | 0.11 | 0.03 | 60 | 1015.7 | |
| 20260905233029 | 69 | 0.0 | 0.0 | 0.01 | 0.11 | 0.03 | 57 | 1015.6 | |
| 20260905231533 | 70 | 0.0 | 0.0 | 0.01 | 0.11 | 0.03 | 56 | 1015.8 | |
| 20260905230030 | 71 | 0.0 | 0.0 | 0.01 | 0.11 | 0.03 | 55 | 1015.9 | |
| 20260905224531 | 72 | 0.0 | 0.0 | 0.01 | 0.11 | 0.03 | 56 | 1016.1 | |
| 20260905223035 | 74 | 0.0 | 0.0 | 0.00 | 0.10 | 0.02 | 52 | 1016.2 | |
| 20260905221532 | 73 | 0.0 | 0.0 | 0.00 | 0.10 | 0.02 | 53 | 1016.3 | |
| 20260905220004 | 73 | 0.0 | 0.0 | 0.00 | 0.10 | 0.02 | 52 | 1016.4 | |
| 20260905214509 | 72 | 0.0 | 0.0 | 0.00 | 0.10 | 0.02 | 58 | 1016.6 | |
| 20260905213013 | 70 | 0.0 | 0.0 | 0.00 | 0.10 | 0.02 | 56 | 1016.9 | |
| 20260905211531 | 70 | 0.0 | 0.0 | 0.00 | 0.10 | 0.02 | 61 | 1017.0 | |
| 20260905210029 | 67 | 0.0 | 0.0 | 0.00 | 0.10 | 0.02 | 67 | 1017.0 | |
| 20260905204531 | 67 | 0.0 | 0.0 | 0.00 | 0.10 | 0.02 | 71 | 1017.2 | |
| 20260905203016 | 66 | 0.0 | 0.0 | 0.00 | 0.10 | 0.02 | 73 | 1017.2 | |
| 20260905201516 | 64 | 0.0 | 0.0 | 0.00 | 0.10 | 0.02 | 79 | 1017.3 | |
| 20260905200023 | 62 | 0.0 | 0.0 | 0.00 | 0.10 | 0.02 | 79 | 1017.3 | |
| 20260905194531 | 62 | 0.0 | 0.0 | 0.00 | 0.11 | 0.02 | 82 | 1017.4 | |
| 20260905193010 | 61 | 0.0 | 0.0 | 0.00 | 0.11 | 0.02 | 84 | 1017.4 | |
| 20260905191517 | 60 | 0.0 | 0.0 | 0.00 | 0.11 | 0.02 | 85 | 1017.4 | |
| 20260905190024 | 60 | 0.0 | 0.0 | 0.00 | 0.11 | 0.02 | 90 | 1017.5 | |
| 20260905184530 | 59 | 0.0 | 0.0 | 0.00 | 0.11 | 0.02 | 91 | 1017.5 | |
| 20260905183032 | 59 | 0.0 | 0.0 | 0.00 | 0.11 | 0.02 | 91 | 1017.6 | |
| 20260905181514 | 59 | 0.0 | 0.0 | 0.00 | 0.11 | 0.02 | 93 | 1017.6 | |
| 20260905180017 | 59 | 0.0 | 0.0 | 0.00 | 0.11 | 0.02 | 94 | 1017.5 | |
| 20260905174528 | 58 | 0.0 | 0.0 | 0.00 | 0.11 | 0.02 | 95 | 1017.5 | |
| 20260905173030 | 58 | 0.0 | 0.0 | 0.00 | 0.11 | 0.02 | 96 | 1017.6 | |
| 20260905171535 | 58 | 0.0 | 0.0 | 0.00 | 0.11 | 0.02 | 96 | 1017.7 | |
| 20260905170013 | 58 | 0.0 | 0.0 | 0.00 | 0.11 | 0.02 | 96 | 1017.8 | |
| 20260905164523 | 58 | 0.0 | 0.0 | 0.00 | 0.11 | 0.02 | 96 | 1017.7 | |
| 20260905163028 | 58 | 0.0 | 0.0 | 0.00 | 0.11 | 0.02 | 96 | 1017.5 | |
| 20260905161530 | 57 | 0.0 | 0.0 | 0.00 | 0.11 | 0.02 | 96 | 1017.7 | |
| 20260905160032 | 57 | 0.0 | 0.0 | 0.00 | 0.11 | 0.02 | 96 | 1017.6 | |
| 20260905154519 | 56 | 0.0 | 0.0 | 0.00 | 0.11 | 0.02 | 96 | 1017.6 | |
| 20260905153027 | 56 | 0.0 | 0.0 | 0.00 | 0.11 | 0.02 | 96 | 1017.7 | |
| 20260905151532 | 56 | 0.0 | 0.0 | 0.00 | 0.11 | 0.02 | 96 | 1017.7 | |
| 20260905150036 | 56 | 0.0 | 0.0 | 0.00 | 0.11 | 0.02 | 96 | 1017.7 | |
| 20260905144535 | 55 | 0.0 | 0.0 | 0.00 | 0.11 | 0.02 | 96 | 1017.6 | |
| 20260905143025 | 55 | 0.0 | 0.0 | 0.00 | 0.11 | 0.02 | 96 | 1017.6 | |
| 20260905141528 | 55 | 0.0 | 0.0 | 0.00 | 0.11 | 0.02 | 95 | 1017.5 | |
| 20260905140035 | 55 | 0.0 | 0.0 | 0.00 | 0.11 | 0.02 | 95 | 1017.4 | |
| 20260905134542 | 55 | 0.0 | 0.0 | 0.00 | 0.11 | 0.02 | 95 | 1017.4 | |
| 20260905133033 | 55 | 0.0 | 0.0 | 0.01 | 0.11 | 0.02 | 95 | 1017.3 | |
| 20260905131526 | 55 | 0.0 | 0.0 | 0.01 | 0.11 | 0.02 | 95 | 1017.1 | |
| 20260905130003 | 55 | 0.0 | 0.0 | 0.01 | 0.11 | 0.02 | 95 | 1017.0 | |
| 20260905124511 | 55 | 0.0 | 0.0 | 0.01 | 0.11 | 0.02 | 95 | 1017.0 | |
| 20260905123016 | 55 | 0.0 | 0.0 | 0.01 | 0.10 | 0.01 | 95 | 1017.0 | |
| 20260905121521 | 55 | 0.0 | 0.0 | 0.01 | 0.10 | 0.01 | 95 | 1016.9 | |
| 20260905120028 | 55 | 0.0 | 0.0 | 0.01 | 0.10 | 0.01 | 95 | 1017.0 | |
| 20260905114507 | 55 | 0.0 | 0.0 | 0.01 | 0.10 | 0.01 | 95 | 1017.0 | |
| 20260905113013 | 56 | 0.0 | 0.0 | 0.00 | 0.09 | 0.00 | 95 | 1017.0 | |
| 20260905111520 | 56 | 0.0 | 0.0 | 0.00 | 0.09 | 0.00 | 95 | 1017.0 | |
| 20260905110026 | 56 | 0.0 | 0.0 | 0.00 | 0.09 | 0.00 | 95 | 1017.0 | |
| 20260905104527 | 56 | 0.0 | 0.0 | 0.00 | 0.09 | 0.00 | 95 | 1017.1 | |
| 20260905103010 | 56 | 0.0 | 0.0 | 0.00 | 0.09 | 0.00 | 95 | 1017.0 | |
| 20260905101518 | 56 | 0.0 | 0.0 | 0.00 | 0.09 | 0.00 | 94 | 1017.1 | |
| 20260905100021 | 56 | 0.0 | 0.0 | 0.00 | 0.09 | 0.00 | 94 | 1017.0 | |
| 20260905094529 | 56 | 0.0 | 0.0 | 0.00 | 0.09 | 0.00 | 94 | 1016.9 | |
| 20260905093042 | 56 | 0.0 | 0.0 | 0.00 | 0.09 | 0.00 | 94 | 1016.8 | |
| 20260905091514 | 56 | 0.0 | 0.0 | 0.00 | 0.09 | 0.00 | 94 | 1016.7 | |
| 20260905090026 | 56 | 0.0 | 0.0 | 0.00 | 0.10 | 0.00 | 94 | 1016.7 | |
| 20260905084526 | 56 | 0.0 | 0.0 | 0.00 | 0.10 | 0.00 | 94 | 1016.7 | |
| 20260905083029 | 56 | 0.0 | 0.0 | 0.00 | 0.11 | 0.00 | 94 | 1016.6 | |
| 20260905081530 | 56 | 0.0 | 0.0 | 0.00 | 0.11 | 0.00 | 94 | 1016.6 | |
| 20260905080019 | 56 | 0.0 | 0.0 | 0.00 | 0.12 | 0.00 | 94 | 1016.5 | |
| 20260905074523 | 56 | 0.0 | 0.0 | 0.00 | 0.13 | 0.00 | 94 | 1016.4 | |
| 20260905073030 | 56 | 0.0 | 0.0 | 0.00 | 0.13 | 0.00 | 94 | 1016.4 | |
| 20260905071531 | 56 | 0.0 | 0.0 | 0.00 | 0.14 | 0.00 | 94 | 1016.4 | |
| 20260905070036 | 56 | 0.0 | 0.0 | 0.00 | 0.16 | 0.00 | 94 | 1016.4 | |
| 20260905064520 | 56 | 0.0 | 0.0 | 0.00 | 0.18 | 0.16 | 94 | 1016.4 | |
| 20260905063024 | 56 | 0.0 | 0.0 | 0.00 | 0.20 | 0.16 | 94 | 1016.2 | |
| 20260905061534 | 57 | 0.0 | 0.0 | 0.00 | 0.21 | 0.16 | 94 | 1016.2 | |
| 20260905060035 | 57 | 0.0 | 0.0 | 0.00 | 0.22 | 0.16 | 94 | 1016.1 | |
| 20260905054535 | 57 | 0.0 | 0.0 | 0.00 | 0.23 | 0.16 | 93 | 1016.1 | |
| 20260905053024 | 57 | 0.0 | 0.0 | 0.00 | 0.24 | 0.16 | 93 | 1016.1 |